Henderson, NV

12:19 PM PDT on August 25, 2016 (GMT -0700)
Henderson

Weather History for KHND - October, 2012

Change the Weather History Date:

Wednesday, October 3, 2012

  Actual Average (KLAS) Record (KLAS)
Temperature  
Mean Temperature 84 °F 75 °F  
Max Temperature 97 °F 86 °F 99 °F (1980)
Min Temperature 72 °F 64 °F 44 °F (1950)
Degree Days  
Heating Degree Days 0 0  
Month to date heating degree days 0  
Since 1 July heating degree days 1  
Cooling Degree Days 20 10  
Month to date cooling degree days 32  
Year to date cooling degree days 3409  
Growing Degree Days 34 (Base 50)    
Moisture  
Dew Point 28 °F    
Average Humidity 13    
Maximum Humidity 19    
Minimum Humidity 8    
Precipitation  
Precipitation 0.00 in 0.01 in 0.11 in (1974)
Month to date precipitation 0.02  
Year to date precipitation 3.08  
Snow  
Snow 0.00 in 0.00 in 0.00 in ()
Month to date snowfall 0.0  
Since 1 July snowfall 0.0  
Since 1 September snowfall 0.0  
Snow Depth -    
Sea Level Pressure  
Sea Level Pressure 29.77 in    
Wind  
Wind Speed 13 mph (SSW)    
Max Wind Speed 21 mph    
Max Gust Speed -    
Visibility 10 miles    
Events      
T = Trace of Precipitation, MM = Missing Value Source: NWS Daily Summary

Daily Weather History Graph

Daily Weather History Graph

Search for Another Location

Airport or City:

Trip Planner

Search our weather history database for the weather conditions in past years. The results will help you decide how hot, cold, wet, or windy it might be!

Date:

Astronomy

Oct. 03, 2012 Rise Set
Actual Time 6:37 AM PDT 6:20 PM PDT
Civil Twilight 6:12 AM PDT 6:46 PM PDT
Nautical Twilight 5:42 AM PDT 7:15 PM PDT
Astronomical Twilight 5:12 AM PDT 7:45 PM PDT
Moon 8:23 PM PDT (10/3) 9:57 AM PDT (10/3)
Length of Visible Light 12h 33m
Length of Day
11h 42m
Waning Gibbous, 88% of the Moon is Illuminated
Oct 3
Waning Gibbous
Oct 8
Last Quarter
Oct 15
New
Oct 21
First Quarter
Oct 29
Full

Hourly Weather History & Observations

Time (PDT) Temp. Dew Point Humidity Pressure Visibility Wind Dir Wind Speed Gust Speed Precip Events Conditions
12:56 AM 77.9 °F 25.2 °F 14% 29.73 in 10.0 mi SSW 11.5 mph - N/A   Clear
1:56 AM 75.9 °F 26.1 °F 16% 29.74 in 10.0 mi SSW 12.7 mph - N/A   Clear
2:56 AM 75.9 °F 25.2 °F 15% 29.73 in 10.0 mi SSW 12.7 mph - N/A   Clear
4:56 AM 73.9 °F 26.1 °F 17% 29.74 in 10.0 mi South 11.5 mph - N/A   Clear
5:56 AM 72.9 °F 27.1 °F 18% 29.75 in 10.0 mi South 10.4 mph - N/A   Clear
6:56 AM 74.8 °F 30.0 °F 19% 29.78 in 10.0 mi South 11.5 mph - N/A   Clear
7:56 AM 79.0 °F 32.0 °F 18% 29.80 in 10.0 mi SSW 10.4 mph - N/A   Clear
8:56 AM 82.9 °F 32.0 °F 16% 29.82 in 10.0 mi WSW 10.4 mph - N/A   Clear
9:56 AM 88.9 °F 31.1 °F 13% 29.81 in 10.0 mi SW 16.1 mph - N/A   Clear
10:56 AM 91.9 °F 31.1 °F 11% 29.81 in 10.0 mi SW 15.0 mph - N/A   Clear
11:56 AM 95.0 °F 28.0 °F 9% 29.78 in 10.0 mi SW 17.3 mph - N/A   Clear
12:56 PM 95.9 °F 28.0 °F 9% 29.76 in 10.0 mi SW 17.3 mph - N/A   Clear
1:56 PM 97.0 °F 27.1 °F 8% 29.75 in 10.0 mi SSW 19.6 mph - N/A   Clear
2:56 PM 97.0 °F 26.1 °F 8% 29.74 in 10.0 mi SSW 20.7 mph - N/A   Clear
3:56 PM 95.9 °F 25.2 °F 8% 29.74 in 10.0 mi SW 19.6 mph - N/A   Clear
4:56 PM 95.0 °F 27.1 °F 9% 29.74 in 10.0 mi SW 13.8 mph - N/A   Clear
5:56 PM 92.8 °F 27.1 °F 10% 29.74 in 10.0 mi SW 12.7 mph - N/A   Clear
6:56 PM 88.0 °F 28.0 °F 12% 29.75 in 10.0 mi SSW 10.4 mph - N/A   Clear
7:56 PM 82.9 °F 27.1 °F 13% 29.77 in 10.0 mi South 11.5 mph - N/A   Clear
8:56 PM 81.9 °F 27.1 °F 14% 29.78 in 10.0 mi SSW 11.5 mph - N/A   Clear
9:56 PM 81.9 °F 28.0 °F 14% 29.78 in 10.0 mi South 16.1 mph - N/A   Clear
10:56 PM 81.9 °F 31.1 °F 16% 29.79 in 10.0 mi SSW 19.6 mph - N/A   Clear
11:56 PM 77.9 °F 31.1 °F 18% 29.80 in 10.0 mi SSW 16.1 mph - N/A   Clear